TimeEDT,TemperatureF,Dew PointF,Humidity,Sea Level PressureIn,VisibilityMPH,Wind Direction,Wind SpeedMPH,Gust SpeedMPH,PrecipitationIn,Events,Conditions,WindDirDegrees,DateUTC
12:53 AM,69.1,68.0,96,29.84,10.0,Calm,Calm,-,N/A,,Clear,0,2013-06-14 04:53:00
1:53 AM,70.0,68.0,93,29.82,10.0,NW,6.9,-,N/A,,Clear,320,2013-06-14 05:53:00
2:53 AM,70.0,68.0,93,29.82,9.0,NW,8.1,-,N/A,,Clear,310,2013-06-14 06:53:00
3:53 AM,69.1,66.9,93,29.82,8.0,WNW,3.5,-,N/A,,Clear,290,2013-06-14 07:53:00
4:53 AM,68.0,66.0,93,29.83,8.0,West,3.5,-,N/A,,Clear,280,2013-06-14 08:53:00
5:53 AM,66.9,64.9,93,29.84,8.0,NNW,5.8,-,N/A,,Clear,330,2013-06-14 09:53:00
6:53 AM,66.0,64.0,93,29.85,7.0,NNW,5.8,-,N/A,,Clear,340,2013-06-14 10:53:00
7:53 AM,69.1,64.0,84,29.88,9.0,NNW,5.8,-,N/A,,Clear,340,2013-06-14 11:53:00
8:53 AM,71.1,64.9,81,29.92,10.0,Variable,3.5,-,N/A,,Clear,0,2013-06-14 12:53:00
9:53 AM,73.9,63.0,68,29.92,10.0,Variable,3.5,-,N/A,,Clear,0,2013-06-14 13:53:00
10:53 AM,77.0,63.0,62,29.92,10.0,NNW,4.6,-,N/A,,Clear,330,2013-06-14 14:53:00
11:53 AM,79.0,60.1,52,29.93,10.0,Calm,Calm,-,N/A,,Clear,0,2013-06-14 15:53:00
12:53 PM,81.0,62.1,52,29.92,10.0,Variable,5.8,-,N/A,,Clear,0,2013-06-14 16:53:00
1:53 PM,82.0,60.1,47,29.91,10.0,WNW,9.2,-,N/A,,Clear,300,2013-06-14 17:53:00
2:53 PM,82.9,57.9,42,29.90,10.0,NNE,6.9,16.1,N/A,,Clear,20,2013-06-14 18:53:00
3:53 PM,84.0,57.9,41,29.89,10.0,NNW,9.2,-,N/A,,Clear,340,2013-06-14 19:53:00
4:53 PM,84.9,59.0,41,29.88,10.0,NW,8.1,-,N/A,,Clear,320,2013-06-14 20:53:00
5:53 PM,84.0,57.9,41,29.88,10.0,Calm,Calm,-,N/A,,Clear,0,2013-06-14 21:53:00
6:53 PM,82.9,59.0,44,29.89,10.0,NNW,4.6,-,N/A,,Clear,340,2013-06-14 22:53:00
8:53 PM,79.0,59.0,50,29.93,10.0,Calm,Calm,-,N/A,,Mostly Cloudy,0,2013-06-15 00:53:00
9:53 PM,75.9,59.0,56,29.95,10.0,Calm,Calm,-,N/A,,Partly Cloudy,0,2013-06-15 01:53:00
10:53 PM,72.0,63.0,73,29.97,10.0,Calm,Calm,-,N/A,,Mostly Cloudy,0,2013-06-15 02:53:00
11:53 PM,73.0,60.1,64,29.98,10.0,Calm,Calm,-,N/A,,Mostly Cloudy,0,2013-06-15 03:53:00